SCP
0 0 0 0 0 0 0 0 0 0 0 0 -0 -0 -0 -0 -0 -0 -0 -0 -0 -0 -0 -0 -0 -0 -0 -0 -0 -0 -0 -0 -0 -0 -0 -0 -0 -0 -0 -0 0 0 -0
0 0 0 0 0 0 0 0 0 0 0 0 0 0 0 0 0 0 0 -0 -0 -0 -0 -0 -0 -0 -0 -0 -0 -0 -0 -0 -0 -0 -0 -0 -0 -0 -0 -0 -0 0 -0
0 0 0 0 0 0 0 0 0 0 0 0 0 0 0 0 0 0 0 0 0 0 -0 -0 -0 -0 -0 -0 -0 -0 -0 -0 -0 -0 -0 0 -0 -0 -0 -0 -0 -0 0
0 0 0 0 0 0 0 0 0 0 0 0 0 0 0 0 0 0 -0 -0 0 0 0 -0 -0 -0 -0 -0 -0 -0 -0 -0 -0 -0 -0 0 -0 -0 -0 -0 -0 0 0
0 0 0 0 0 0 0 0 0 0 0 0 0 0 0 0 0 0 -0 -0 -0 0 0 0 0 -0 0 -0 -0 -0 -0 -0 -0 0 0 0 0 0 0 0 0 0 0
0 0 0 0 0 0 0 0 0 0 0 0 0 0 0 0 -0 0 -0 -0 0 0 0 0 0 0 -0 -0 0 0 0 -0 -0 0 0 0 0 0 0 0 0 0 0
1 0 0 0 0 0 0 0 0 0 0 0 0 0 -0 -0 0 0 0 0 0 0 0 0 0 0 -0 -0 0 0 0 -0 0 0 0 0 0 0 0 0 0 0 0
1 1 1 1 1 0 0 0 0 0 0 0 0 0 0 -0 0 0 0 0 0 0 0 0 0 0 0 0 0 0 0 -0 -0 0 0 0 0 0 0 0 0 0 0
0 1 1 1 0 1 0 0 0 0 0 0 0 0 0 0 0 0 0 0 0 0 0 0 0 0 0 0 0 0 0 -0 0 0 0 0 0 0 0 0 0 0 0
0 1 1 1 1 0 0 0 0 0 0 0 0 0 0 0 0 0 0 0 0 0 0 0 0 0 0 0 0 0 0 -0 -0 0 0 0 0 0 0 0 0 0 0
0 0 0 1 1 1 0 0 0 0 0 0 0 0 0 0 0 0 0 0 0 0 0 0 0 0 0 0 0 0 0 -0 0 0 0 0 0 0 0 0 0 0 0
0 0 0 0 0 1 1 0 0 0 0 0 0 0 0 0 0 0 0 0 0 0 0 0 0 0 0 0 0 0 0 -0 0 0 0 0 0 0 0 0 0 0 0
0 0 0 0 0 0 1 1 1 1 1 0 0 0 0 0 0 0 0 0 0 0 0 0 0 0 0 0 0 0 0 0 0 0 0 0 0 0 0 0 0 0 0
0 0 0 0 0 0 0 1 1 1 1 1 0 0 0 0 0 1 0 0 0 0 0 0 0 0 0 0 0 0 0 0 0 0 0 0 0 0 0 -0 -0 0 0
0 0 0 0 0 0 0 0 1 1 1 0 0 0 0 1 1 0 1 1 1 0 0 0 0 0 0 0 0 0 0 0 0 0 0 0 0 0 0 0 0 0 0
0 0 0 0 0 0 0 0 0 0 0 1 1 0 0 0 1 1 1 0 0 1 0 0 0 0 0 0 0 0 0 0 0 0 0 0 0 0 0 0 0 0 0
0 0 0 0 0 0 0 0 0 1 0 1 1 0 1 1 1 1 1 1 1 1 0 0 0 0 0 0 0 0 0 0 0 0 0 0 0 0 0 0 0 0 0
0 0 0 0 0 0 0 0 0 1 0 0 1 1 1 1 0 1 1 0 0 1 1 0 0 0 0 0 0 0 0 0 0 0 0 0 0 0 0 0 0 0 0
0 0 0 0 0 0 0 0 0 0 1 0 0 1 0 1 1 1 0 0 0 1 0 0 0 0 0 0 0 0 0 0 0 0 0 0 0 0 0 0 0 0 0
0 0 0 0 0 0 0 0 0 0 0 1 0 0 0 0 0 0 0 0 0 0 1 0 0 0 0 0 0 0 0 0 0 0 0 0 0 0 0 0 0 0 0
0 0 0 0 0 0 0 0 0 0 0 0 1 1 0 0 0 0 0 0 0 0 0 0 1 0 0 0 0 0 0 0 0 0 0 0 0 0 0 0 0 0 0
0 0 0 0 0 0 0 0 0 0 0 1 1 1 1 0 0 0 0 0 0 0 0 0 0 1 1 0 0 0 0 0 0 0 0 0 0 0 0 0 0 0 0
0 0 0 0 0 0 0 0 0 0 1 1 1 1 1 1 1 1 0 0 0 0 1 1 1 0 0 0 0 0 0 0 0 0 0 0 0 0 0 0 0 0 0
0 0 0 0 0 0 0 0 0 0 0 1 1 1 1 1 0 0 1 1 0 0 0 1 1 1 0 0 0 0 0 0 0 0 0 0 0 0 0 0 0 0 0
0 0 0 0 0 0 0 0 0 0 0 1 1 1 1 1 0 1 1 1 0 1 0 0 0 0 0 0 0 0 0 0 0 0 0 0 0 0 0 0 0 0 0
0 0 0 0 0 0 0 0 0 0 0 1 1 1 1 1 1 1 1 1 0 0 0 0 0 0 0 0 0 0 0 0 0 0 0 0 0 0 0 0 0 0 0
Wind_Speed_500mb
3 11 19 26 32 29 25 20 19 16 14 12 7 5 2 4 6 7 10 16 23 17 15 18 18 18 17 17 21 22 21 23 21 22 21 24 25 25 23 24 12 19 20
3 12 22 25 30 30 25 20 18 15 14 11 9 7 2 2 3 5 8 14 25 25 18 17 10 10 13 12 14 16 18 21 20 20 19 19 18 17 15 12 15 18 19
3 16 22 23 26 28 27 21 18 16 14 10 8 7 4 3 1 4 7 13 22 22 19 14 10 6 10 12 13 16 19 21 25 26 26 13 12 12 9 9 12 16 17
4 18 22 25 24 25 25 23 20 17 15 12 11 9 9 6 5 4 9 15 18 11 17 13 14 11 16 16 17 17 19 21 26 29 15 13 7 7 9 10 12 14 15
10 16 28 25 27 26 25 25 22 20 18 15 12 12 10 9 8 9 13 16 10 8 11 11 13 19 18 17 16 16 17 19 19 18 12 11 3 7 8 9 12 15 15
4 14 25 28 30 29 26 23 23 22 20 17 13 12 9 9 11 13 14 20 15 4 3 10 19 18 16 15 13 12 13 14 14 6 2 16 8 6 8 9 11 13 14
6 15 20 26 31 27 27 26 24 22 20 19 16 14 11 11 14 19 16 20 15 8 6 14 18 14 13 13 10 8 9 10 13 3 5 6 2 4 6 9 11 13 14
16 14 20 23 31 30 27 27 27 25 22 21 18 16 16 15 17 20 22 23 13 11 10 17 17 15 13 11 10 7 7 7 11 2 5 4 1 1 5 7 10 12 11
14 20 21 14 28 30 29 28 28 28 27 26 24 21 20 20 18 20 24 27 17 13 15 19 18 16 13 11 9 8 8 8 12 7 4 5 4 3 2 5 7 9 10
8 18 24 26 19 22 31 34 33 30 28 26 25 24 24 24 21 21 22 28 21 16 18 22 22 19 15 13 12 9 8 9 6 9 4 15 10 8 5 5 6 7 9
10 15 25 29 30 27 25 28 35 34 32 31 31 30 29 28 24 27 26 32 28 20 21 24 26 23 19 16 15 14 11 4 6 8 8 16 12 11 10 8 8 8 9
19 21 20 24 34 35 30 28 31 31 35 36 35 32 34 23 25 27 30 34 30 25 23 28 29 27 24 17 19 18 16 5 13 12 15 19 15 14 13 12 11 10 11
38 34 29 29 28 39 41 31 30 34 33 28 29 29 27 25 34 38 40 35 38 34 31 33 34 32 30 21 18 15 12 15 16 16 19 24 20 17 16 15 12 12 13
50 49 42 36 35 35 42 37 27 35 36 29 32 33 35 33 34 41 43 39 38 38 34 30 31 32 28 26 25 21 20 19 15 17 19 28 23 21 19 17 17 19 18
50 56 56 48 43 37 36 34 34 37 37 34 33 30 38 37 38 36 38 41 40 37 36 32 27 28 29 30 32 28 25 23 22 22 21 29 27 26 24 21 21 21 20
38 48 55 59 54 46 41 40 36 39 35 39 40 34 39 42 47 43 38 41 44 43 35 35 30 32 33 35 34 33 29 26 26 27 27 26 32 30 30 26 23 22 22
40 39 41 54 61 56 47 43 42 41 38 39 42 44 41 38 43 45 45 43 43 42 39 40 42 36 33 33 33 33 34 30 29 27 27 28 29 35 33 33 30 26 26
51 49 46 42 51 62 59 51 44 47 43 41 41 41 38 39 39 41 39 36 34 39 44 39 38 42 47 41 43 44 44 42 33 30 30 29 31 31 34 35 35 34 33
49 48 50 49 50 58 64 59 56 59 53 41 40 42 46 40 38 35 38 38 43 39 38 44 45 41 41 51 54 43 45 53 52 46 41 35 35 40 42 41 42 39 40
47 49 50 48 46 48 49 54 53 57 61 56 44 41 47 51 39 43 39 38 38 40 49 45 44 49 51 45 43 47 59 50 46 48 49 43 42 40 45 43 48 46 45
45 51 53 51 47 46 51 52 48 63 63 65 63 46 44 45 54 48 40 41 41 48 51 49 50 52 55 53 45 46 46 45 43 55 51 50 47 44 48 46 47 48 48
43 43 47 50 48 46 51 51 52 49 64 65 67 67 61 53 54 60 56 52 48 50 48 52 55 56 59 62 62 54 33 50 61 64 55 51 51 43 39 46 44 46 50
43 41 41 42 43 44 45 49 48 45 44 55 61 58 63 64 64 63 63 60 59 54 51 55 57 58 62 62 67 58 25 32 38 43 49 44 47 36 42 47 42 47 43
43 44 42 41 41 45 48 53 50 50 50 57 57 54 53 51 57 57 60 58 60 59 56 59 62 64 63 70 73 74 74 43 30 25 38 36 31 33 29 21 31 36 39
42 45 42 41 48 49 51 52 51 53 54 49 50 44 43 55 58 55 54 57 59 58 62 61 59 60 66 60 72 61 69 74 53 35 24 32 28 40 40 46 51 59 60
43 35 38 35 39 37 47 47 52 50 49 53 52 48 47 49 50 49 51 55 54 53 55 56 54 59 56 60 57 67 66 63 67 61 47 55 55 59 61 70 69 65 69
Wind_Direction_500mb
37 222 183 177 174 177 183 185 179 180 179 180 179 173 100 15 34 59 108 123 115 102 109 111 114 118 113 109 114 117 110 122 115 104 101 100 103 102 97 91 74 43 44
272 237 187 185 179 181 188 188 182 180 183 193 193 201 180 343 15 84 121 139 139 132 131 135 149 164 150 136 122 126 116 115 117 99 91 102 103 93 93 80 25 36 44
156 210 197 183 184 185 187 195 196 193 198 201 212 199 216 255 250 115 127 135 155 158 148 167 173 189 174 165 138 126 122 113 105 89 85 84 89 87 69 39 35 40 42
161 207 185 185 188 188 192 199 204 206 213 216 215 227 229 216 217 153 145 134 127 147 174 184 188 162 137 141 135 132 130 122 113 89 80 50 47 71 53 49 42 38 40
145 207 193 209 195 195 197 200 209 213 219 224 227 240 224 209 205 179 156 143 142 119 178 185 193 135 133 135 135 133 136 130 115 81 99 117 81 70 62 48 45 37 33
184 202 207 218 209 202 207 206 214 219 222 229 234 245 244 210 203 182 176 172 188 189 192 189 151 143 139 137 139 144 145 145 105 93 93 104 190 71 61 48 36 31 40
191 190 232 224 211 212 214 214 215 223 226 225 230 239 224 223 219 203 197 191 197 214 221 178 160 156 159 154 146 150 159 157 111 136 103 95 80 69 52 36 30 34 39
173 185 216 226 212 214 216 221 223 223 226 232 232 236 237 234 233 212 211 205 218 229 220 190 172 167 163 167 170 166 167 165 83 128 137 198 214 42 42 30 27 30 32
207 184 185 232 225 220 223 225 228 229 227 232 238 240 240 237 237 231 225 212 227 239 224 201 191 187 186 183 184 178 177 178 132 231 147 312 275 292 359 13 16 20 22
241 222 203 193 219 234 233 230 230 231 235 237 241 243 243 242 237 237 219 210 227 241 229 211 205 204 204 206 204 204 194 186 124 238 191 240 265 281 295 319 343 358 5
274 244 227 225 213 208 219 246 237 232 232 233 235 238 237 236 241 235 222 222 224 232 227 221 216 215 218 222 224 221 215 183 244 250 235 267 268 277 283 295 310 323 328
271 260 241 237 230 224 211 222 244 233 237 238 239 239 239 230 226 239 231 226 225 232 228 225 225 222 225 233 246 238 233 199 243 247 253 270 270 274 277 282 291 304 310
263 264 257 245 241 232 225 218 222 229 227 225 229 222 227 221 229 230 230 226 223 229 230 226 227 229 229 210 229 261 250 239 242 257 256 272 273 273 276 279 282 286 297
262 256 256 254 248 243 236 233 231 241 236 226 224 217 222 219 223 231 229 227 221 231 225 233 227 232 227 224 226 234 238 249 249 253 261 278 273 271 274 276 271 273 283
267 259 252 252 248 243 243 230 232 233 231 226 220 218 219 222 226 230 233 226 223 214 218 216 215 222 224 227 231 229 235 243 252 255 259 273 275 270 270 271 277 278 279
271 264 256 249 247 245 238 235 231 231 230 230 233 215 227 223 219 225 224 230 225 219 227 223 220 217 223 232 235 233 239 242 246 247 253 263 279 272 267 267 274 264 272
271 266 262 251 243 242 241 238 231 228 230 236 228 227 223 225 229 224 225 229 230 226 223 236 234 225 229 234 239 237 236 244 246 251 258 263 266 279 269 262 266 262 262
270 260 257 254 249 243 239 238 235 229 229 228 233 224 227 222 223 226 224 228 234 233 230 228 234 233 231 235 234 238 243 244 244 247 247 256 265 266 272 264 265 266 267
266 257 254 254 251 248 241 239 242 231 223 227 226 223 221 214 222 218 221 222 220 226 234 234 237 237 239 241 248 255 246 251 254 252 251 251 255 261 263 268 271 267 269
265 254 249 250 248 244 238 237 240 233 224 215 221 224 223 220 215 222 224 236 235 235 240 239 237 241 243 245 245 244 248 248 247 247 254 256 264 270 273 273 265 271 269
268 253 247 246 245 239 231 228 231 236 232 224 217 218 224 225 228 228 237 245 238 245 240 247 250 247 246 249 243 242 241 244 244 252 255 263 264 271 270 273 267 273 277
269 258 251 245 241 236 228 228 227 245 234 232 229 229 223 225 231 237 244 250 248 250 252 246 249 253 250 252 249 252 240 255 262 256 262 260 265 269 258 260 263 270 272
271 257 249 246 238 235 229 228 230 229 231 232 228 233 237 236 237 238 245 251 256 258 255 255 254 252 254 254 245 236 239 241 254 250 245 241 238 250 252 260 268 274 279
282 262 248 240 240 241 236 225 229 229 231 231 228 229 234 238 239 243 245 251 260 262 255 257 260 254 251 252 258 249 247 247 239 238 234 221 229 238 244 249 276 279 278
278 265 253 244 248 241 236 226 226 228 230 230 234 229 228 239 243 244 248 253 255 257 259 262 258 257 251 253 246 250 257 247 232 239 255 255 267 253 256 268 273 286 283
276 262 245 244 251 245 224 223 225 226 231 231 229 233 237 236 242 242 243 251 255 257 263 256 254 252 248 254 256 255 246 241 236 241 257 271 275 274 262 266 278 279 284
Wind_Speed_850mb
3 11 19 26 32 29 25 20 19 16 14 12 7 5 2 4 6 7 10 16 23 17 15 18 18 18 17 17 21 22 21 23 21 22 21 24 25 25 23 24 12 19 20
3 12 22 25 30 30 25 20 18 15 14 11 9 7 2 2 3 5 8 14 25 25 18 17 10 10 13 12 14 16 18 21 20 20 19 19 18 17 15 12 15 18 19
3 16 22 23 26 28 27 21 18 16 14 10 8 7 4 3 1 4 7 13 22 22 19 14 10 6 10 12 13 16 19 21 25 26 26 13 12 12 9 9 12 16 17
4 18 22 25 24 25 25 23 20 17 15 12 11 9 9 6 5 4 9 15 18 11 17 13 14 11 16 16 17 17 19 21 26 29 15 13 7 7 9 10 12 14 15
10 16 28 25 27 26 25 25 22 20 18 15 12 12 10 9 8 9 13 16 10 8 11 11 13 19 18 17 16 16 17 19 19 18 12 11 3 7 8 9 12 15 15
4 14 25 28 30 29 26 23 23 22 20 17 13 12 9 9 11 13 14 20 15 4 3 10 19 18 16 15 13 12 13 14 14 6 2 16 8 6 8 9 11 13 14
6 15 20 26 31 27 27 26 24 22 20 19 16 14 11 11 14 19 16 20 15 8 6 14 18 14 13 13 10 8 9 10 13 3 5 6 2 4 6 9 11 13 14
16 14 20 23 31 30 27 27 27 25 22 21 18 16 16 15 17 20 22 23 13 11 10 17 17 15 13 11 10 7 7 7 11 2 5 4 1 1 5 7 10 12 11
14 20 21 14 28 30 29 28 28 28 27 26 24 21 20 20 18 20 24 27 17 13 15 19 18 16 13 11 9 8 8 8 12 7 4 5 4 3 2 5 7 9 10
8 18 24 26 19 22 31 34 33 30 28 26 25 24 24 24 21 21 22 28 21 16 18 22 22 19 15 13 12 9 8 9 6 9 4 15 10 8 5 5 6 7 9
10 15 25 29 30 27 25 28 35 34 32 31 31 30 29 28 24 27 26 32 28 20 21 24 26 23 19 16 15 14 11 4 6 8 8 16 12 11 10 8 8 8 9
19 21 20 24 34 35 30 28 31 31 35 36 35 32 34 23 25 27 30 34 30 25 23 28 29 27 24 17 19 18 16 5 13 12 15 19 15 14 13 12 11 10 11
38 34 29 29 28 39 41 31 30 34 33 28 29 29 27 25 34 38 40 35 38 34 31 33 34 32 30 21 18 15 12 15 16 16 19 24 20 17 16 15 12 12 13
50 49 42 36 35 35 42 37 27 35 36 29 32 33 35 33 34 41 43 39 38 38 34 30 31 32 28 26 25 21 20 19 15 17 19 28 23 21 19 17 17 19 18
50 56 56 48 43 37 36 34 34 37 37 34 33 30 38 37 38 36 38 41 40 37 36 32 27 28 29 30 32 28 25 23 22 22 21 29 27 26 24 21 21 21 20
38 48 55 59 54 46 41 40 36 39 35 39 40 34 39 42 47 43 38 41 44 43 35 35 30 32 33 35 34 33 29 26 26 27 27 26 32 30 30 26 23 22 22
40 39 41 54 61 56 47 43 42 41 38 39 42 44 41 38 43 45 45 43 43 42 39 40 42 36 33 33 33 33 34 30 29 27 27 28 29 35 33 33 30 26 26
51 49 46 42 51 62 59 51 44 47 43 41 41 41 38 39 39 41 39 36 34 39 44 39 38 42 47 41 43 44 44 42 33 30 30 29 31 31 34 35 35 34 33
49 48 50 49 50 58 64 59 56 59 53 41 40 42 46 40 38 35 38 38 43 39 38 44 45 41 41 51 54 43 45 53 52 46 41 35 35 40 42 41 42 39 40
47 49 50 48 46 48 49 54 53 57 61 56 44 41 47 51 39 43 39 38 38 40 49 45 44 49 51 45 43 47 59 50 46 48 49 43 42 40 45 43 48 46 45
45 51 53 51 47 46 51 52 48 63 63 65 63 46 44 45 54 48 40 41 41 48 51 49 50 52 55 53 45 46 46 45 43 55 51 50 47 44 48 46 47 48 48
43 43 47 50 48 46 51 51 52 49 64 65 67 67 61 53 54 60 56 52 48 50 48 52 55 56 59 62 62 54 33 50 61 64 55 51 51 43 39 46 44 46 50
43 41 41 42 43 44 45 49 48 45 44 55 61 58 63 64 64 63 63 60 59 54 51 55 57 58 62 62 67 58 25 32 38 43 49 44 47 36 42 47 42 47 43
43 44 42 41 41 45 48 53 50 50 50 57 57 54 53 51 57 57 60 58 60 59 56 59 62 64 63 70 73 74 74 43 30 25 38 36 31 33 29 21 31 36 39
42 45 42 41 48 49 51 52 51 53 54 49 50 44 43 55 58 55 54 57 59 58 62 61 59 60 66 60 72 61 69 74 53 35 24 32 28 40 40 46 51 59 60
43 35 38 35 39 37 47 47 52 50 49 53 52 48 47 49 50 49 51 55 54 53 55 56 54 59 56 60 57 67 66 63 67 61 47 55 55 59 61 70 69 65 69
Wind_Direction_850mb
37 222 183 177 174 177 183 185 179 180 179 180 179 173 100 15 34 59 108 123 115 102 109 111 114 118 113 109 114 117 110 122 115 104 101 100 103 102 97 91 74 43 44
272 237 187 185 179 181 188 188 182 180 183 193 193 201 180 343 15 84 121 139 139 132 131 135 149 164 150 136 122 126 116 115 117 99 91 102 103 93 93 80 25 36 44
156 210 197 183 184 185 187 195 196 193 198 201 212 199 216 255 250 115 127 135 155 158 148 167 173 189 174 165 138 126 122 113 105 89 85 84 89 87 69 39 35 40 42
161 207 185 185 188 188 192 199 204 206 213 216 215 227 229 216 217 153 145 134 127 147 174 184 188 162 137 141 135 132 130 122 113 89 80 50 47 71 53 49 42 38 40
145 207 193 209 195 195 197 200 209 213 219 224 227 240 224 209 205 179 156 143 142 119 178 185 193 135 133 135 135 133 136 130 115 81 99 117 81 70 62 48 45 37 33
184 202 207 218 209 202 207 206 214 219 222 229 234 245 244 210 203 182 176 172 188 189 192 189 151 143 139 137 139 144 145 145 105 93 93 104 190 71 61 48 36 31 40
191 190 232 224 211 212 214 214 215 223 226 225 230 239 224 223 219 203 197 191 197 214 221 178 160 156 159 154 146 150 159 157 111 136 103 95 80 69 52 36 30 34 39
173 185 216 226 212 214 216 221 223 223 226 232 232 236 237 234 233 212 211 205 218 229 220 190 172 167 163 167 170 166 167 165 83 128 137 198 214 42 42 30 27 30 32
207 184 185 232 225 220 223 225 228 229 227 232 238 240 240 237 237 231 225 212 227 239 224 201 191 187 186 183 184 178 177 178 132 231 147 312 275 292 359 13 16 20 22
241 222 203 193 219 234 233 230 230 231 235 237 241 243 243 242 237 237 219 210 227 241 229 211 205 204 204 206 204 204 194 186 124 238 191 240 265 281 295 319 343 358 5
274 244 227 225 213 208 219 246 237 232 232 233 235 238 237 236 241 235 222 222 224 232 227 221 216 215 218 222 224 221 215 183 244 250 235 267 268 277 283 295 310 323 328
271 260 241 237 230 224 211 222 244 233 237 238 239 239 239 230 226 239 231 226 225 232 228 225 225 222 225 233 246 238 233 199 243 247 253 270 270 274 277 282 291 304 310
263 264 257 245 241 232 225 218 222 229 227 225 229 222 227 221 229 230 230 226 223 229 230 226 227 229 229 210 229 261 250 239 242 257 256 272 273 273 276 279 282 286 297
262 256 256 254 248 243 236 233 231 241 236 226 224 217 222 219 223 231 229 227 221 231 225 233 227 232 227 224 226 234 238 249 249 253 261 278 273 271 274 276 271 273 283
267 259 252 252 248 243 243 230 232 233 231 226 220 218 219 222 226 230 233 226 223 214 218 216 215 222 224 227 231 229 235 243 252 255 259 273 275 270 270 271 277 278 279
271 264 256 249 247 245 238 235 231 231 230 230 233 215 227 223 219 225 224 230 225 219 227 223 220 217 223 232 235 233 239 242 246 247 253 263 279 272 267 267 274 264 272
271 266 262 251 243 242 241 238 231 228 230 236 228 227 223 225 229 224 225 229 230 226 223 236 234 225 229 234 239 237 236 244 246 251 258 263 266 279 269 262 266 262 262
270 260 257 254 249 243 239 238 235 229 229 228 233 224 227 222 223 226 224 228 234 233 230 228 234 233 231 235 234 238 243 244 244 247 247 256 265 266 272 264 265 266 267
266 257 254 254 251 248 241 239 242 231 223 227 226 223 221 214 222 218 221 222 220 226 234 234 237 237 239 241 248 255 246 251 254 252 251 251 255 261 263 268 271 267 269
265 254 249 250 248 244 238 237 240 233 224 215 221 224 223 220 215 222 224 236 235 235 240 239 237 241 243 245 245 244 248 248 247 247 254 256 264 270 273 273 265 271 269
268 253 247 246 245 239 231 228 231 236 232 224 217 218 224 225 228 228 237 245 238 245 240 247 250 247 246 249 243 242 241 244 244 252 255 263 264 271 270 273 267 273 277
269 258 251 245 241 236 228 228 227 245 234 232 229 229 223 225 231 237 244 250 248 250 252 246 249 253 250 252 249 252 240 255 262 256 262 260 265 269 258 260 263 270 272
271 257 249 246 238 235 229 228 230 229 231 232 228 233 237 236 237 238 245 251 256 258 255 255 254 252 254 254 245 236 239 241 254 250 245 241 238 250 252 260 268 274 279
282 262 248 240 240 241 236 225 229 229 231 231 228 229 234 238 239 243 245 251 260 262 255 257 260 254 251 252 258 249 247 247 239 238 234 221 229 238 244 249 276 279 278
278 265 253 244 248 241 236 226 226 228 230 230 234 229 228 239 243 244 248 253 255 257 259 262 258 257 251 253 246 250 257 247 232 239 255 255 267 253 256 268 273 286 283
276 262 245 244 251 245 224 223 225 226 231 231 229 233 237 236 242 242 243 251 255 257 263 256 254 252 248 254 256 255 246 241 236 241 257 271 275 274 262 266 278 279 284